Year,Month,Day,Hour,Minute,Value (Times are PST for temperature in C)
2010,05,03,00,00,6.30
2010,05,03,00,01,6.30
2010,05,03,00,02,6.30
2010,05,03,00,03,6.30
2010,05,03,00,04,6.30
2010,05,03,00,05,6.30
2010,05,03,00,06,6.30
2010,05,03,00,07,6.30
2010,05,03,00,08,6.40
2010,05,03,00,09,6.40
2010,05,03,00,10,6.40
2010,05,03,00,11,6.40
2010,05,03,00,12,6.40
2010,05,03,00,13,6.40
2010,05,03,00,14,6.40
2010,05,03,00,15,6.40
2010,05,03,00,16,6.40
2010,05,03,00,17,6.40
2010,05,03,00,18,6.40
2010,05,03,00,19,6.50
2010,05,03,00,20,6.50
2010,05,03,00,21,6.50
2010,05,03,00,22,6.50
2010,05,03,00,23,6.50
2010,05,03,00,24,6.50
2010,05,03,00,25,6.50
2010,05,03,00,26,6.50
2010,05,03,00,27,6.60
2010,05,03,00,28,6.60
2010,05,03,00,29,6.60
2010,05,03,00,30,6.60
2010,05,03,00,31,6.60
2010,05,03,00,32,6.60
2010,05,03,00,33,6.60
2010,05,03,00,34,6.60
2010,05,03,00,35,6.60
2010,05,03,00,36,6.60
2010,05,03,00,37,6.60
2010,05,03,00,38,6.60
2010,05,03,00,39,6.70
2010,05,03,00,40,6.70
2010,05,03,00,41,6.70
2010,05,03,00,42,6.70
2010,05,03,00,43,6.70
2010,05,03,00,44,6.70
2010,05,03,00,45,6.70
2010,05,03,00,46,6.70
2010,05,03,00,47,6.70
2010,05,03,00,48,6.70
2010,05,03,00,49,6.70
2010,05,03,00,50,6.70
2010,05,03,00,51,6.80
2010,05,03,00,52,6.80
2010,05,03,00,53,6.80
2010,05,03,00,54,6.70
2010,05,03,00,55,6.70
2010,05,03,00,56,6.70
2010,05,03,00,57,6.80
2010,05,03,00,58,6.70
2010,05,03,00,59,6.80
2010,05,03,01,00,6.80
2010,05,03,01,01,6.80
2010,05,03,01,02,6.80
2010,05,03,01,03,6.80
2010,05,03,01,04,6.80
2010,05,03,01,05,6.80
2010,05,03,01,06,6.80
2010,05,03,01,07,6.80
2010,05,03,01,08,6.80
2010,05,03,01,09,6.80
2010,05,03,01,10,6.80
2010,05,03,01,11,6.80
2010,05,03,01,12,6.80
2010,05,03,01,13,6.80
2010,05,03,01,14,6.80
2010,05,03,01,15,6.80
2010,05,03,01,16,6.80
2010,05,03,01,17,6.80
2010,05,03,01,18,6.90
2010,05,03,01,19,6.90
2010,05,03,01,20,6.90
2010,05,03,01,21,6.90
2010,05,03,01,22,6.90
2010,05,03,01,23,6.90
2010,05,03,01,24,6.90
2010,05,03,01,25,6.90
2010,05,03,01,26,6.90
2010,05,03,01,27,6.90
2010,05,03,01,28,6.90
2010,05,03,01,29,6.90
2010,05,03,01,30,6.90
2010,05,03,01,31,6.90
2010,05,03,01,32,6.90
2010,05,03,01,33,7.00
2010,05,03,01,34,7.00
2010,05,03,01,35,7.00
2010,05,03,01,36,7.00
2010,05,03,01,37,7.00
2010,05,03,01,38,7.00
2010,05,03,01,39,7.00
2010,05,03,01,40,7.00
2010,05,03,01,41,7.00
2010,05,03,01,42,6.90
2010,05,03,01,43,6.90
2010,05,03,01,44,6.90
2010,05,03,01,45,7.00
2010,05,03,01,46,7.00
2010,05,03,01,47,7.00
2010,05,03,01,48,7.00
2010,05,03,01,49,7.00
2010,05,03,01,50,7.00
2010,05,03,01,51,7.00
2010,05,03,01,52,7.00
2010,05,03,01,53,7.00
2010,05,03,01,54,7.00
2010,05,03,01,55,7.00
2010,05,03,01,56,7.00
2010,05,03,01,57,7.10
2010,05,03,01,58,7.10
2010,05,03,01,59,7.10
2010,05,03,02,00,7.10
2010,05,03,02,01,7.10
2010,05,03,02,02,7.10
2010,05,03,02,03,7.10
2010,05,03,02,04,7.10
2010,05,03,02,05,7.10
2010,05,03,02,06,7.10
2010,05,03,02,07,7.20
2010,05,03,02,08,7.20
2010,05,03,02,09,7.30
2010,05,03,02,10,7.30
2010,05,03,02,11,7.30
2010,05,03,02,12,7.40
2010,05,03,02,13,7.40
2010,05,03,02,14,7.40
2010,05,03,02,15,7.40
2010,05,03,02,16,7.40
2010,05,03,02,17,7.40
2010,05,03,02,18,7.40
2010,05,03,02,19,7.40
2010,05,03,02,20,7.40
2010,05,03,02,21,7.40
2010,05,03,02,22,7.40
2010,05,03,02,23,7.40
2010,05,03,02,24,7.40
2010,05,03,02,25,7.40
2010,05,03,02,26,7.40
2010,05,03,02,27,7.40
2010,05,03,02,28,7.40
2010,05,03,02,29,7.40
2010,05,03,02,30,7.40
2010,05,03,02,31,7.40
2010,05,03,02,32,7.40
2010,05,03,02,33,7.40
2010,05,03,02,34,7.40
2010,05,03,02,35,7.50
2010,05,03,02,36,7.60
2010,05,03,02,37,7.70
2010,05,03,02,38,7.80
2010,05,03,02,39,7.80
2010,05,03,02,40,7.90
2010,05,03,02,41,7.90
2010,05,03,02,42,7.90
2010,05,03,02,43,7.90
2010,05,03,02,44,7.90
2010,05,03,02,45,7.90
2010,05,03,02,46,7.90
2010,05,03,02,47,8.00
2010,05,03,02,48,8.00
2010,05,03,02,49,8.10
2010,05,03,02,50,8.10
2010,05,03,02,51,8.20
2010,05,03,02,52,8.20
2010,05,03,02,53,8.30
2010,05,03,02,54,8.30
2010,05,03,02,55,8.30
2010,05,03,02,56,8.30
2010,05,03,02,57,8.30
2010,05,03,02,58,8.30
2010,05,03,02,59,8.30
2010,05,03,03,00,8.20
2010,05,03,03,01,8.20
2010,05,03,03,02,8.20
2010,05,03,03,03,8.20
2010,05,03,03,04,8.20
2010,05,03,03,05,8.10
2010,05,03,03,06,8.00
2010,05,03,03,07,7.90
2010,05,03,03,08,7.90
2010,05,03,03,09,7.90
2010,05,03,03,10,7.90
2010,05,03,03,11,7.90
2010,05,03,03,12,7.90
2010,05,03,03,13,7.90
2010,05,03,03,14,8.00
2010,05,03,03,15,8.00
2010,05,03,03,16,8.10
2010,05,03,03,17,8.10
2010,05,03,03,18,8.10
2010,05,03,03,19,8.10
2010,05,03,03,20,8.10
2010,05,03,03,21,8.10
2010,05,03,03,22,8.20
2010,05,03,03,23,8.20
2010,05,03,03,24,8.20
2010,05,03,03,25,8.20
2010,05,03,03,26,8.20
2010,05,03,03,27,8.20
2010,05,03,03,28,8.30
2010,05,03,03,29,8.30
2010,05,03,03,30,8.40
2010,05,03,03,31,8.40
2010,05,03,03,32,8.30
2010,05,03,03,33,8.30
2010,05,03,03,34,8.30
2010,05,03,03,35,8.30
2010,05,03,03,36,8.20
2010,05,03,03,37,8.20
2010,05,03,03,38,8.20
2010,05,03,03,39,8.20
2010,05,03,03,40,8.30
2010,05,03,03,41,8.30
2010,05,03,03,42,8.30
2010,05,03,03,43,8.30
2010,05,03,03,44,8.20
2010,05,03,03,45,8.20
2010,05,03,03,46,8.20
2010,05,03,03,47,8.20
2010,05,03,03,48,8.20
2010,05,03,03,49,8.20
2010,05,03,03,50,8.30
2010,05,03,03,51,8.30
2010,05,03,03,52,8.30
2010,05,03,03,53,8.30
2010,05,03,03,54,8.30
2010,05,03,03,55,8.20
2010,05,03,03,56,8.20
2010,05,03,03,57,8.20
2010,05,03,03,58,8.20
2010,05,03,03,59,8.20
2010,05,03,04,00,8.20
2010,05,03,04,01,8.20
2010,05,03,04,02,8.20
2010,05,03,04,03,8.20
2010,05,03,04,04,8.20
2010,05,03,04,05,8.20
2010,05,03,04,06,8.20
2010,05,03,04,07,8.20
2010,05,03,04,08,8.20
2010,05,03,04,09,8.30
2010,05,03,04,10,8.30
2010,05,03,04,11,8.40
2010,05,03,04,12,8.40
2010,05,03,04,13,8.40
2010,05,03,04,14,8.40
2010,05,03,04,15,8.40
2010,05,03,04,16,8.30
2010,05,03,04,17,8.30
2010,05,03,04,18,8.30
2010,05,03,04,19,8.40
2010,05,03,04,20,8.40
2010,05,03,04,21,8.40
2010,05,03,04,22,8.40
2010,05,03,04,23,8.40
2010,05,03,04,24,8.40
2010,05,03,04,25,8.40
2010,05,03,04,26,8.40
2010,05,03,04,27,8.30
2010,05,03,04,28,8.40
2010,05,03,04,29,8.40
2010,05,03,04,30,8.40
2010,05,03,04,31,8.50
2010,05,03,04,32,8.60
2010,05,03,04,33,8.60
2010,05,03,04,34,8.60
2010,05,03,04,35,8.60
2010,05,03,04,36,8.50
2010,05,03,04,37,8.50
2010,05,03,04,38,8.50
2010,05,03,04,39,8.50
2010,05,03,04,40,8.40
2010,05,03,04,41,8.40
2010,05,03,04,42,8.30
2010,05,03,04,43,8.30
2010,05,03,04,44,8.30
2010,05,03,04,45,8.30
2010,05,03,04,46,8.20
2010,05,03,04,47,8.20
2010,05,03,04,48,8.20
2010,05,03,04,49,8.10
2010,05,03,04,50,8.10
2010,05,03,04,51,8.10
2010,05,03,04,52,8.10
2010,05,03,04,53,8.00
2010,05,03,04,54,7.90
2010,05,03,04,55,7.90
2010,05,03,04,56,7.80
2010,05,03,04,57,7.80
2010,05,03,04,58,7.80
2010,05,03,04,59,7.70
2010,05,03,05,00,7.70
2010,05,03,05,01,7.60
2010,05,03,05,02,7.60
2010,05,03,05,03,7.50
2010,05,03,05,04,7.40
2010,05,03,05,05,7.40
2010,05,03,05,06,7.30
2010,05,03,05,07,7.30
2010,05,03,05,08,7.20
2010,05,03,05,09,7.20
2010,05,03,05,10,7.20
2010,05,03,05,11,7.20
2010,05,03,05,12,7.20
2010,05,03,05,13,7.10
2010,05,03,05,14,7.10
2010,05,03,05,15,7.10
2010,05,03,05,16,7.20
2010,05,03,05,17,7.20
2010,05,03,05,18,7.20
2010,05,03,05,19,7.20
2010,05,03,05,20,7.20
2010,05,03,05,21,7.10
2010,05,03,05,22,7.10
2010,05,03,05,23,7.10
2010,05,03,05,24,7.10
2010,05,03,05,25,7.10
2010,05,03,05,26,7.10
2010,05,03,05,27,7.10
2010,05,03,05,28,7.10
2010,05,03,05,29,7.10
2010,05,03,05,30,7.10
2010,05,03,05,31,7.10
2010,05,03,05,32,7.00
2010,05,03,05,33,7.00
2010,05,03,05,34,6.90
2010,05,03,05,35,6.80
2010,05,03,05,36,6.80
2010,05,03,05,37,6.70
2010,05,03,05,38,6.60
2010,05,03,05,39,6.50
2010,05,03,05,40,6.40
2010,05,03,05,41,6.30
2010,05,03,05,42,6.30
2010,05,03,05,43,6.20
2010,05,03,05,44,6.20
2010,05,03,05,45,6.20
2010,05,03,05,46,6.10
2010,05,03,05,47,6.10
2010,05,03,05,48,6.10
2010,05,03,05,49,6.10
2010,05,03,05,50,6.00
2010,05,03,05,51,6.00
2010,05,03,05,52,6.00
2010,05,03,05,53,5.90
2010,05,03,05,54,5.90
2010,05,03,05,55,5.90
2010,05,03,05,56,5.90
2010,05,03,05,57,5.90
2010,05,03,05,58,5.90
2010,05,03,05,59,5.90
2010,05,03,06,00,5.90
2010,05,03,06,01,5.80
2010,05,03,06,02,5.80
2010,05,03,06,03,5.80
2010,05,03,06,04,5.80
2010,05,03,06,05,5.80
2010,05,03,06,06,5.80
2010,05,03,06,07,5.80
2010,05,03,06,08,5.80
2010,05,03,06,09,5.70
2010,05,03,06,10,5.70
2010,05,03,06,11,5.70
2010,05,03,06,12,5.70
2010,05,03,06,13,5.70
2010,05,03,06,14,5.70
2010,05,03,06,15,5.70
2010,05,03,06,16,5.70
2010,05,03,06,17,5.60
2010,05,03,06,18,5.60
2010,05,03,06,19,5.60
2010,05,03,06,20,5.60
2010,05,03,06,21,5.60
2010,05,03,06,22,5.60
2010,05,03,06,23,5.60
2010,05,03,06,24,5.60
2010,05,03,06,25,5.50
2010,05,03,06,26,5.50
2010,05,03,06,27,5.50
2010,05,03,06,28,5.50
2010,05,03,06,29,5.50
2010,05,03,06,30,5.50
2010,05,03,06,31,5.50
2010,05,03,06,32,5.50
2010,05,03,06,33,5.50
2010,05,03,06,34,5.50
2010,05,03,06,35,5.50
2010,05,03,06,36,5.50
2010,05,03,06,37,5.50
2010,05,03,06,38,5.50
2010,05,03,06,39,5.50
2010,05,03,06,40,5.50
2010,05,03,06,41,5.50
2010,05,03,06,42,5.50
2010,05,03,06,43,5.50
2010,05,03,06,44,5.60
2010,05,03,06,45,5.60
2010,05,03,06,46,5.60
2010,05,03,06,47,5.60
2010,05,03,06,48,5.60
2010,05,03,06,49,5.60
2010,05,03,06,50,5.60
2010,05,03,06,51,5.70
2010,05,03,06,52,5.70
2010,05,03,06,53,5.70
2010,05,03,06,54,5.70
2010,05,03,06,55,5.70
2010,05,03,06,56,5.80
2010,05,03,06,57,5.80
2010,05,03,06,58,5.80
2010,05,03,06,59,5.80
2010,05,03,07,00,5.80
2010,05,03,07,01,5.90
2010,05,03,07,02,5.90
2010,05,03,07,03,5.90
2010,05,03,07,04,6.00
2010,05,03,07,05,6.10
2010,05,03,07,06,6.20
2010,05,03,07,07,6.30
2010,05,03,07,08,6.40
2010,05,03,07,09,6.40
2010,05,03,07,10,6.50
2010,05,03,07,11,6.60
2010,05,03,07,12,6.80
2010,05,03,07,13,6.90
2010,05,03,07,14,7.00
2010,05,03,07,15,7.20
2010,05,03,07,16,7.30
2010,05,03,07,17,7.40
2010,05,03,07,18,7.40
2010,05,03,07,19,7.50
2010,05,03,07,20,7.60
2010,05,03,07,21,7.60
2010,05,03,07,22,7.70
2010,05,03,07,23,7.70
2010,05,03,07,24,7.70
2010,05,03,07,25,7.70
2010,05,03,07,26,7.80
2010,05,03,07,27,7.80
2010,05,03,07,28,7.90
2010,05,03,07,29,7.90
2010,05,03,07,30,8.00
2010,05,03,07,31,7.90
2010,05,03,07,32,7.90
2010,05,03,07,33,8.00
2010,05,03,07,34,8.10
2010,05,03,07,35,8.10
2010,05,03,07,36,8.00
2010,05,03,07,37,7.90
2010,05,03,07,38,7.90
2010,05,03,07,39,7.80
2010,05,03,07,40,7.70
2010,05,03,07,41,7.70
2010,05,03,07,42,7.60
2010,05,03,07,43,7.60
2010,05,03,07,44,7.50
2010,05,03,07,45,7.40
2010,05,03,07,46,7.40
2010,05,03,07,47,7.40
2010,05,03,07,48,7.40
2010,05,03,07,49,7.40
2010,05,03,07,50,7.40
2010,05,03,07,51,7.50
2010,05,03,07,52,7.60
2010,05,03,07,53,7.70
2010,05,03,07,54,7.80
2010,05,03,07,55,7.90
2010,05,03,07,56,8.00
2010,05,03,07,57,8.00
2010,05,03,07,58,8.10
2010,05,03,07,59,8.20
2010,05,03,08,00,8.20
2010,05,03,08,01,8.30
2010,05,03,08,02,8.30
2010,05,03,08,03,8.40
2010,05,03,08,04,8.40
2010,05,03,08,05,8.50
2010,05,03,08,06,8.50
2010,05,03,08,07,8.60
2010,05,03,08,08,8.60
2010,05,03,08,09,8.70
2010,05,03,08,10,8.70
2010,05,03,08,11,8.70
2010,05,03,08,12,8.70
2010,05,03,08,13,8.80
2010,05,03,08,14,8.80
2010,05,03,08,15,8.80
2010,05,03,08,16,8.80
2010,05,03,08,17,8.80
2010,05,03,08,18,8.90
2010,05,03,08,19,8.90
2010,05,03,08,20,8.90
2010,05,03,08,21,8.90
2010,05,03,08,22,8.90
2010,05,03,08,23,8.90
2010,05,03,08,24,9.00
2010,05,03,08,25,9.00
2010,05,03,08,26,9.10
2010,05,03,08,27,9.10
2010,05,03,08,28,9.10
2010,05,03,08,29,9.20
2010,05,03,08,30,9.20
2010,05,03,08,31,9.20
2010,05,03,08,32,9.30
2010,05,03,08,33,9.30
2010,05,03,08,34,9.30
2010,05,03,08,35,9.30
2010,05,03,08,36,9.40
2010,05,03,08,37,9.40
2010,05,03,08,38,9.40
2010,05,03,08,39,9.40
2010,05,03,08,40,9.40
2010,05,03,08,41,9.50
2010,05,03,08,42,9.50
2010,05,03,08,43,9.60
2010,05,03,08,44,9.60
2010,05,03,08,45,9.60
2010,05,03,08,46,9.60
2010,05,03,08,47,9.70
2010,05,03,08,48,9.60
2010,05,03,08,49,9.70
2010,05,03,08,50,9.70
2010,05,03,08,51,9.70
2010,05,03,08,52,9.70
2010,05,03,08,53,9.70
2010,05,03,08,54,9.80
2010,05,03,08,55,9.80
2010,05,03,08,56,9.80
2010,05,03,08,57,9.80
2010,05,03,08,58,9.90
2010,05,03,08,59,9.90
2010,05,03,09,00,9.80
2010,05,03,09,01,9.80
2010,05,03,09,02,9.80
2010,05,03,09,03,9.80
2010,05,03,09,04,9.80
2010,05,03,09,05,9.80
2010,05,03,09,06,9.80
2010,05,03,09,07,9.80
2010,05,03,09,08,9.80
2010,05,03,09,09,9.80
2010,05,03,09,10,9.80
2010,05,03,09,11,9.80
2010,05,03,09,12,9.80
2010,05,03,09,13,9.80
2010,05,03,09,14,9.80
2010,05,03,09,15,9.80
2010,05,03,09,16,9.80
2010,05,03,09,17,9.80
2010,05,03,09,18,9.80
2010,05,03,09,19,9.80
2010,05,03,09,20,9.90
2010,05,03,09,21,9.90
2010,05,03,09,22,9.90
2010,05,03,09,23,9.90
2010,05,03,09,24,9.90
2010,05,03,09,25,9.90
2010,05,03,09,26,9.90
2010,05,03,09,27,10.00
2010,05,03,09,28,10.00
2010,05,03,09,29,10.10
2010,05,03,09,30,10.10
2010,05,03,09,31,10.10
2010,05,03,09,32,10.20
2010,05,03,09,33,10.20
2010,05,03,09,34,10.30
2010,05,03,09,35,10.30
2010,05,03,09,36,10.30
2010,05,03,09,37,10.30
2010,05,03,09,38,10.30
2010,05,03,09,39,10.30
2010,05,03,09,40,10.30
2010,05,03,09,41,10.20
2010,05,03,09,42,10.20
2010,05,03,09,43,10.30
2010,05,03,09,44,10.30
2010,05,03,09,45,10.40
2010,05,03,09,46,10.40
2010,05,03,09,47,10.40
2010,05,03,09,48,10.40
2010,05,03,09,49,10.40
2010,05,03,09,50,10.40
2010,05,03,09,51,10.40
2010,05,03,09,52,10.40
2010,05,03,09,53,10.40
2010,05,03,09,54,10.40
2010,05,03,09,55,10.40
2010,05,03,09,56,10.50
2010,05,03,09,57,10.50
2010,05,03,09,58,10.60
2010,05,03,09,59,10.60
2010,05,03,10,00,10.70
2010,05,03,10,01,10.80
2010,05,03,10,02,10.80
2010,05,03,10,03,10.90
2010,05,03,10,04,10.80
2010,05,03,10,05,10.90
2010,05,03,10,06,10.90
2010,05,03,10,07,10.90
2010,05,03,10,08,11.00
2010,05,03,10,09,11.00
2010,05,03,10,10,10.90
2010,05,03,10,11,10.80
2010,05,03,10,12,10.80
2010,05,03,10,13,10.90
2010,05,03,10,14,10.90
2010,05,03,10,15,10.90
2010,05,03,10,16,10.90
2010,05,03,10,17,11.00
2010,05,03,10,18,11.10
2010,05,03,10,19,11.10
2010,05,03,10,20,11.10
2010,05,03,10,21,11.10
2010,05,03,10,22,11.00
2010,05,03,10,23,11.00
2010,05,03,10,24,10.80
2010,05,03,10,25,10.70
2010,05,03,10,26,10.50
2010,05,03,10,27,10.40
2010,05,03,10,28,10.30
2010,05,03,10,29,10.30
2010,05,03,10,30,10.30
2010,05,03,10,31,10.20
2010,05,03,10,32,10.20
2010,05,03,10,33,10.20
2010,05,03,10,34,10.20
2010,05,03,10,35,10.20
2010,05,03,10,36,10.20
2010,05,03,10,37,10.20
2010,05,03,10,38,10.30
2010,05,03,10,39,10.30
2010,05,03,10,40,10.40
2010,05,03,10,41,10.40
2010,05,03,10,42,10.40
2010,05,03,10,43,10.50
2010,05,03,10,44,10.50
2010,05,03,10,45,10.40
2010,05,03,10,46,10.40
2010,05,03,10,47,10.40
2010,05,03,10,48,10.40
2010,05,03,10,49,10.40
2010,05,03,10,50,10.40
2010,05,03,10,51,10.40
2010,05,03,10,52,10.40
2010,05,03,10,53,10.40
2010,05,03,10,54,10.40
2010,05,03,10,55,10.40
2010,05,03,10,56,10.30
2010,05,03,10,57,10.30
2010,05,03,10,58,10.30
2010,05,03,10,59,10.30
2010,05,03,11,00,10.30
2010,05,03,11,01,10.30
2010,05,03,11,02,10.30
2010,05,03,11,03,10.30
2010,05,03,11,04,10.30
2010,05,03,11,05,10.20
2010,05,03,11,06,10.10
2010,05,03,11,07,10.10
2010,05,03,11,08,10.00
2010,05,03,11,09,9.90
2010,05,03,11,10,9.90
2010,05,03,11,11,9.90
2010,05,03,11,12,9.90
2010,05,03,11,13,9.80
2010,05,03,11,14,9.80
2010,05,03,11,15,9.60
2010,05,03,11,16,9.50
2010,05,03,11,17,9.30
2010,05,03,11,18,9.20
2010,05,03,11,19,9.20
2010,05,03,11,20,9.10
2010,05,03,11,21,9.10
2010,05,03,11,22,9.10
2010,05,03,11,23,9.10
2010,05,03,11,24,9.10
2010,05,03,11,25,9.10
2010,05,03,11,26,9.10
2010,05,03,11,27,9.10
2010,05,03,11,28,9.00
2010,05,03,11,29,9.00
2010,05,03,11,30,8.90
2010,05,03,11,31,8.90
2010,05,03,11,32,8.90
2010,05,03,11,33,9.00
2010,05,03,11,34,9.00
2010,05,03,11,35,9.00
2010,05,03,11,36,9.10
2010,05,03,11,37,9.10
2010,05,03,11,38,9.10
2010,05,03,11,39,9.20
2010,05,03,11,40,9.20
2010,05,03,11,41,9.20
2010,05,03,11,42,9.20
2010,05,03,11,43,9.30
2010,05,03,11,44,9.40
2010,05,03,11,45,9.40
2010,05,03,11,46,9.50
2010,05,03,11,47,9.50
2010,05,03,11,48,9.60
2010,05,03,11,49,9.60
2010,05,03,11,50,9.60
2010,05,03,11,51,9.60
2010,05,03,11,52,9.70
2010,05,03,11,53,9.70
2010,05,03,11,54,9.70
2010,05,03,11,55,9.70
2010,05,03,11,56,9.70
2010,05,03,11,57,9.70
2010,05,03,11,58,9.70
2010,05,03,11,59,9.60
2010,05,03,12,00,9.60
2010,05,03,12,01,9.50
2010,05,03,12,02,9.60
2010,05,03,12,03,9.60
2010,05,03,12,04,9.60
2010,05,03,12,05,9.60
2010,05,03,12,06,9.60
2010,05,03,12,07,9.60
2010,05,03,12,08,9.60
2010,05,03,12,09,9.60
2010,05,03,12,10,9.50
2010,05,03,12,11,9.40
2010,05,03,12,12,9.40
2010,05,03,12,13,9.30
2010,05,03,12,14,9.20
2010,05,03,12,15,9.20
2010,05,03,12,16,9.20
2010,05,03,12,17,9.20
2010,05,03,12,18,9.20
2010,05,03,12,19,9.20
2010,05,03,12,20,9.20
2010,05,03,12,21,9.10
2010,05,03,12,22,9.10
2010,05,03,12,23,9.20
2010,05,03,12,24,9.20
2010,05,03,12,25,9.20
2010,05,03,12,26,9.20
2010,05,03,12,27,9.20
2010,05,03,12,28,9.30
2010,05,03,12,29,9.30
2010,05,03,12,30,9.40
2010,05,03,12,31,9.40
2010,05,03,12,32,9.40
2010,05,03,12,33,9.40
2010,05,03,12,34,9.40
2010,05,03,12,35,9.40
2010,05,03,12,36,9.40
2010,05,03,12,37,9.40
2010,05,03,12,38,9.30
2010,05,03,12,39,9.30
2010,05,03,12,40,9.30
2010,05,03,12,41,9.20
2010,05,03,12,42,9.30
2010,05,03,12,43,9.30
2010,05,03,12,44,9.30
2010,05,03,12,45,9.30
2010,05,03,12,46,9.30
2010,05,03,12,47,9.30
2010,05,03,12,48,9.20
2010,05,03,12,49,9.20
2010,05,03,12,50,9.20
2010,05,03,12,51,9.20
2010,05,03,12,52,9.10
2010,05,03,12,53,9.10
2010,05,03,12,54,9.10
2010,05,03,12,55,9.10
2010,05,03,12,56,9.00
2010,05,03,12,57,9.00
2010,05,03,12,58,9.10
2010,05,03,12,59,9.10
2010,05,03,13,00,9.10
2010,05,03,13,01,9.10
2010,05,03,13,02,9.10
2010,05,03,13,03,9.20
2010,05,03,13,04,9.20
2010,05,03,13,05,9.20
2010,05,03,13,06,9.10
2010,05,03,13,07,9.10
2010,05,03,13,08,9.10
2010,05,03,13,09,9.00
2010,05,03,13,10,9.00
2010,05,03,13,11,9.00
2010,05,03,13,12,8.90
2010,05,03,13,13,8.90
2010,05,03,13,14,8.90
2010,05,03,13,15,8.90
2010,05,03,13,16,8.90
2010,05,03,13,17,8.80
2010,05,03,13,18,8.80
2010,05,03,13,19,8.70
2010,05,03,13,20,8.70
2010,05,03,13,21,8.70
2010,05,03,13,22,8.60
2010,05,03,13,23,8.60
2010,05,03,13,24,8.60
2010,05,03,13,25,8.60
2010,05,03,13,26,8.50
2010,05,03,13,27,8.50
2010,05,03,13,28,8.50
2010,05,03,13,29,8.50
2010,05,03,13,30,8.60
2010,05,03,13,31,8.60
2010,05,03,13,32,8.60
2010,05,03,13,33,8.60
2010,05,03,13,34,8.60
2010,05,03,13,35,8.60
2010,05,03,13,36,8.60
2010,05,03,13,37,8.60
2010,05,03,13,38,8.60
2010,05,03,13,39,8.60
2010,05,03,13,40,8.60
2010,05,03,13,41,8.60
2010,05,03,13,42,8.60
2010,05,03,13,43,8.50
2010,05,03,13,44,8.60
2010,05,03,13,45,8.60
2010,05,03,13,46,8.60
2010,05,03,13,47,8.60
2010,05,03,13,48,8.60
2010,05,03,13,49,8.60
2010,05,03,13,50,8.60
2010,05,03,13,51,8.60
2010,05,03,13,52,8.70
2010,05,03,13,53,8.70
2010,05,03,13,54,8.70
2010,05,03,13,55,8.70
2010,05,03,13,56,8.70
2010,05,03,13,57,8.70
2010,05,03,13,58,8.60
2010,05,03,13,59,8.60
2010,05,03,14,00,8.50
2010,05,03,14,01,8.40
2010,05,03,14,02,8.40
2010,05,03,14,03,8.30
2010,05,03,14,04,8.30
2010,05,03,14,05,8.20
2010,05,03,14,06,8.20
2010,05,03,14,07,8.20
2010,05,03,14,08,8.20
2010,05,03,14,09,8.20
2010,05,03,14,10,8.10
2010,05,03,14,11,8.10
2010,05,03,14,12,8.00
2010,05,03,14,13,7.90
2010,05,03,14,14,7.90
2010,05,03,14,15,7.90
2010,05,03,14,16,7.90
2010,05,03,14,17,7.90
2010,05,03,14,18,7.90
2010,05,03,14,19,7.90
2010,05,03,14,20,7.90
2010,05,03,14,21,7.90
2010,05,03,14,22,7.90
2010,05,03,14,23,7.90
2010,05,03,14,24,8.00
2010,05,03,14,25,8.00
2010,05,03,14,26,8.00
2010,05,03,14,27,8.00
2010,05,03,14,28,8.00
2010,05,03,14,29,8.10
2010,05,03,14,30,8.10
2010,05,03,14,31,8.20
2010,05,03,14,32,8.20
2010,05,03,14,33,8.20
2010,05,03,14,34,8.20
2010,05,03,14,35,8.20
2010,05,03,14,36,8.20
2010,05,03,14,37,8.20
2010,05,03,14,38,8.20
2010,05,03,14,39,8.10
2010,05,03,14,40,8.10
2010,05,03,14,41,8.10
2010,05,03,14,42,8.00
2010,05,03,14,43,7.90
2010,05,03,14,44,7.90
2010,05,03,14,45,7.80
2010,05,03,14,46,7.70
2010,05,03,14,47,7.70
2010,05,03,14,48,7.60
2010,05,03,14,49,7.60
2010,05,03,14,50,7.60
2010,05,03,14,51,7.70
2010,05,03,14,52,7.70
2010,05,03,14,53,7.70
2010,05,03,14,54,7.70
2010,05,03,14,55,7.80
2010,05,03,14,56,7.90
2010,05,03,14,57,8.00
2010,05,03,14,58,8.10
2010,05,03,14,59,8.20
2010,05,03,15,00,8.30
2010,05,03,15,01,8.40
2010,05,03,15,02,8.40
2010,05,03,15,03,8.50
2010,05,03,15,04,8.50
2010,05,03,15,05,8.50
2010,05,03,15,06,8.50
2010,05,03,15,07,8.50
2010,05,03,15,08,8.50
2010,05,03,15,09,8.50
2010,05,03,15,10,8.50
2010,05,03,15,11,8.50
2010,05,03,15,12,8.50
2010,05,03,15,13,8.40
2010,05,03,15,14,8.40
2010,05,03,15,15,8.30
2010,05,03,15,16,8.30
2010,05,03,15,17,8.30
2010,05,03,15,18,8.30
2010,05,03,15,19,8.30
2010,05,03,15,20,8.30
2010,05,03,15,21,8.30
2010,05,03,15,22,8.30
2010,05,03,15,23,8.20
2010,05,03,15,24,8.20
2010,05,03,15,25,8.10
2010,05,03,15,26,8.10
2010,05,03,15,27,8.10
2010,05,03,15,28,8.10
2010,05,03,15,29,8.10
2010,05,03,15,30,8.10
2010,05,03,15,31,8.00
2010,05,03,15,32,8.00
2010,05,03,15,33,8.00
2010,05,03,15,34,8.00
2010,05,03,15,35,8.00
2010,05,03,15,36,8.00
2010,05,03,15,37,8.00
2010,05,03,15,38,8.00
2010,05,03,15,39,8.00
2010,05,03,15,40,8.00
2010,05,03,15,41,7.90
2010,05,03,15,42,7.90
2010,05,03,15,43,7.80
2010,05,03,15,44,7.80
2010,05,03,15,45,7.70
2010,05,03,15,46,7.60
2010,05,03,15,47,7.50
2010,05,03,15,48,7.40
2010,05,03,15,49,7.30
2010,05,03,15,50,7.20
2010,05,03,15,51,7.10
2010,05,03,15,52,7.00
2010,05,03,15,53,6.90
2010,05,03,15,54,6.80
2010,05,03,15,55,6.80
2010,05,03,15,56,6.70
2010,05,03,15,57,6.70
2010,05,03,15,58,6.70
2010,05,03,15,59,6.70
2010,05,03,16,00,6.70
2010,05,03,16,01,6.70
2010,05,03,16,02,6.60
2010,05,03,16,03,6.60
2010,05,03,16,04,6.60
2010,05,03,16,05,6.70
2010,05,03,16,06,6.70
2010,05,03,16,07,6.70
2010,05,03,16,08,6.70
2010,05,03,16,09,6.70
2010,05,03,16,10,6.70
2010,05,03,16,11,6.70
2010,05,03,16,12,6.70
2010,05,03,16,13,6.70
2010,05,03,16,14,6.70
2010,05,03,16,15,6.70
2010,05,03,16,16,6.70
2010,05,03,16,17,6.70
2010,05,03,16,18,6.70
2010,05,03,16,19,6.80
2010,05,03,16,20,6.80
2010,05,03,16,21,6.70
2010,05,03,16,22,6.70
2010,05,03,16,23,6.60
2010,05,03,16,24,6.60
2010,05,03,16,25,6.50
2010,05,03,16,26,6.40
2010,05,03,16,27,6.30
2010,05,03,16,28,6.20
2010,05,03,16,29,6.10
2010,05,03,16,30,6.00
2010,05,03,16,31,6.00
2010,05,03,16,32,5.80
2010,05,03,16,33,5.80
2010,05,03,16,34,5.60
2010,05,03,16,35,5.50
2010,05,03,16,36,5.50
2010,05,03,16,37,5.40
2010,05,03,16,38,5.40
2010,05,03,16,39,5.30
2010,05,03,16,40,5.30
2010,05,03,16,41,5.30
2010,05,03,16,42,5.30
2010,05,03,16,43,5.20
2010,05,03,16,44,5.20
2010,05,03,16,45,5.20
2010,05,03,16,46,5.20
2010,05,03,16,47,5.20
2010,05,03,16,48,5.20
2010,05,03,16,49,5.20
2010,05,03,16,50,5.20
2010,05,03,16,51,5.20
2010,05,03,16,52,5.20
2010,05,03,16,53,5.20
2010,05,03,16,54,5.20
2010,05,03,16,55,5.20
2010,05,03,16,56,5.20
2010,05,03,16,57,5.20
2010,05,03,16,58,5.20
2010,05,03,16,59,5.10
2010,05,03,17,00,5.10
2010,05,03,17,01,5.10
2010,05,03,17,02,5.10
2010,05,03,17,03,5.00
2010,05,03,17,04,5.00
2010,05,03,17,05,5.00
2010,05,03,17,06,5.00
2010,05,03,17,07,4.90
2010,05,03,17,08,4.90
2010,05,03,17,09,4.90
2010,05,03,17,10,4.90
2010,05,03,17,11,4.90
2010,05,03,17,12,4.90
2010,05,03,17,13,4.90
2010,05,03,17,14,4.90
2010,05,03,17,15,5.00
2010,05,03,17,16,5.00
2010,05,03,17,17,5.00
2010,05,03,17,18,5.00
2010,05,03,17,19,5.10
2010,05,03,17,20,5.10
2010,05,03,17,21,5.10
2010,05,03,17,22,5.20
2010,05,03,17,23,5.20
2010,05,03,17,24,5.20
2010,05,03,17,25,5.30
2010,05,03,17,26,5.30
2010,05,03,17,27,5.30
2010,05,03,17,28,5.40
2010,05,03,17,29,5.40
2010,05,03,17,30,5.40
2010,05,03,17,31,5.50
2010,05,03,17,32,5.50
2010,05,03,17,33,5.60
2010,05,03,17,34,5.60
2010,05,03,17,35,5.60
2010,05,03,17,36,5.70
2010,05,03,17,37,5.70
2010,05,03,17,38,5.70
2010,05,03,17,39,5.80
2010,05,03,17,40,5.80
2010,05,03,17,41,5.90
2010,05,03,17,42,5.90
2010,05,03,17,43,5.90
2010,05,03,17,44,6.00
2010,05,03,17,45,6.00
2010,05,03,17,46,6.00
2010,05,03,17,47,6.10
2010,05,03,17,48,6.10
2010,05,03,17,49,6.20
2010,05,03,17,50,6.20
2010,05,03,17,51,6.20
2010,05,03,17,52,6.30
2010,05,03,17,53,6.30
2010,05,03,17,54,6.30
2010,05,03,17,55,6.40
2010,05,03,17,56,6.40
2010,05,03,17,57,6.50
2010,05,03,17,58,6.50
2010,05,03,17,59,6.40
2010,05,03,18,00,6.40
2010,05,03,18,01,6.40
2010,05,03,18,02,6.40